[[{"header":{"parameterUnit":"m.s-1","parameterCategory":1,"la1":30.2991,"la2":30.254,"lo1":-89.0895,"lo2":-89.0444,"dy":0.0017,"dx":0.0017,"nx":28,"ny":28,"refTime":"2025-07-24T09:00:00:Z","depth":0,"parameterNumber":2,"parameterNumberName":"U-component_of_WINDS"},"data":[0,0,0,0,0,0,0,0,0,0,0,0,0,0,0,0,0,0,0,0,0,0,0,0,0,0,0,0,0,0,0,0,0,0,0,0,0,0,0,0,0,0,0,0,0,0,0,0,0,0,0,0,0,0,0,0,0,0,-0.2945,-0.2945,0,-0.2866,-0.2866,-0.2865,-0.2786,-0.2785,-0.2784,-0.2783,-0.2704,-0.2703,-0.2702,0,0,0,0,0,0,0,0,0,0,0,0,0,-0.3031,-0.303,-0.2946,-0.2945,-0.2944,-0.2867,-0.2866,-0.2864,-0.2787,-0.2785,-0.2784,-0.2783,-0.2705,-0.2703,-0.2702,0,0,0,0,0,0,0,0,0,0,0,0,0,-0.2978,-0.303,-0.2946,-0.2895,-0.289,-0.2867,-0.2865,-0.2864,-0.2787,-0.2785,-0.2784,-0.2782,-0.2705,-0.2704,-0.2702,-0.2723,0,0,-0.2697,-0.2696,0,0,0,0,0,0,0,0,-0.2981,-0.2974,-0.2904,-0.2899,-0.2893,-0.2835,-0.2867,-0.2817,-0.2787,-0.2826,-0.2783,-0.2782,-0.2749,-0.2744,-0.2732,-0.2719,-0.2715,-0.2697,-0.2696,-0.2695,-0.2694,0,0,0,0,0,0,0,-0.2984,-0.2977,-0.2914,-0.2903,-0.2896,-0.2878,-0.2868,-0.2857,-0.2797,-0.2823,-0.2817,-0.2808,-0.2746,-0.2734,-0.273,-0.2714,-0.2697,-0.2695,-0.2694,-0.2693,-0.2714,-0.2716,0,0,0,0,0,0,-0.2996,-0.2981,-0.2917,-0.2912,-0.2934,-0.2877,-0.2867,-0.2855,-0.2797,-0.2787,-0.281,-0.2805,-0.2738,-0.2732,-0.2727,-0.2747,-0.2695,-0.2693,-0.2692,-0.2712,-0.2714,-0.2716,0,0,0,0,0,0,-0.2998,-0.2991,-0.292,-0.2945,-0.2934,-0.2877,-0.2865,-0.2854,-0.2842,-0.2788,-0.2777,-0.2809,-0.2736,-0.2729,-0.2724,-0.2743,-0.2692,-0.2691,-0.2711,-0.2713,-0.2715,-0.2788,0,0,0,0,0,0,-0.3001,-0.2992,-0.2998,-0.2946,-0.2933,-0.2918,-0.2866,-0.2854,-0.2839,-0.2832,-0.2784,-0.2774,-0.2735,-0.2727,-0.2722,-0.274,-0.269,-0.2709,-0.2712,-0.2715,-0.2784,-0.2792,-0.28,0,0,0,0,0,-0.3004,-0.3022,-0.2999,-0.2992,-0.294,-0.2919,-0.2912,-0.2866,-0.2841,-0.2848,-0.2813,-0.2776,-0.2742,-0.2727,-0.2721,-0.2739,-0.2707,-0.2711,-0.2714,-0.278,-0.2791,-0.28,0,0,0,0,0,0,-0.3079,-0.3014,-0.2988,-0.299,-0.2961,-0.2906,-0.2913,-0.2879,-0.2857,-0.2851,-0.2795,-0.2785,-0.2786,-0.2762,-0.2747,-0.2756,-0.272,-0.2722,-0.2771,-0.2781,-0.2789,-0.2795,-0.2688,0,0,0,0,0,-0.3096,-0.3084,-0.3028,-0.3035,-0.3022,-0.297,-0.2959,-0.2926,-0.2894,-0.2881,-0.2846,-0.2816,-0.2799,-0.2789,-0.277,-0.278,-0.2768,-0.2789,-0.2797,-0.2805,-0.2807,-0.2811,-0.2819,-0.2728,-0.2728,-0.2728,0,0,-0.3131,-0.3094,-0.3089,-0.3049,-0.3023,-0.3012,-0.296,-0.2951,-0.2942,-0.288,-0.2872,-0.2846,-0.281,-0.2812,-0.2811,-0.2792,-0.283,-0.2809,-0.2815,-0.2814,-0.2815,-0.2824,-0.2832,-0.273,-0.273,-0.2729,0,0,-0.3188,-0.3159,-0.3161,-0.3136,-0.3096,-0.3062,-0.3063,-0.3014,-0.2993,-0.2985,-0.2938,-0.2928,-0.29,-0.2875,-0.286,-0.2909,-0.2874,-0.2905,-0.2948,-0.2952,-0.2959,-0.2965,-0.2983,-0.299,-0.2908,-0.2908,-0.2908,0,-0.3236,-0.3217,-0.3167,-0.316,-0.3145,-0.3088,-0.309,-0.3068,-0.3025,-0.3016,-0.2995,-0.2958,-0.2929,-0.2925,-0.2938,-0.2927,-0.2926,-0.291,-0.2962,-0.2968,-0.2973,-0.2989,-0.2996,-0.2912,-0.2912,-0.2911,-0.2911,0,-0.3278,-0.3266,-0.3273,-0.3232,-0.3217,-0.3215,-0.3166,-0.3157,-0.3126,-0.3094,-0.3087,-0.3051,-0.3024,-0.3021,-0.299,-0.3013,-0.3002,-0.2972,-0.2935,-0.2986,-0.3,-0.3006,-0.2918,-0.2916,-0.2915,-0.2914,0,0,-0.3379,-0.3311,-0.3315,-0.3296,-0.3249,-0.3238,-0.3235,-0.3208,-0.3201,-0.3174,-0.3169,-0.3147,-0.312,-0.3102,-0.3068,-0.3072,-0.3114,-0.3042,-0.304,-0.3056,-0.3136,-0.3158,-0.3166,-0.3091,-0.3092,-0.3092,-0.3139,0,-0.3427,-0.3416,-0.3372,-0.3374,-0.3362,-0.3309,-0.3306,-0.3277,-0.3248,-0.3234,-0.3202,-0.3187,-0.3152,-0.3141,-0.3142,-0.3108,-0.3129,-0.3105,-0.3086,-0.3086,-0.3096,-0.3173,-0.3196,-0.3242,-0.3144,-0.3145,-0.3146,0,-0.3482,-0.3458,-0.3459,-0.3413,-0.3406,-0.3404,-0.3376,-0.3364,-0.333,-0.3309,-0.329,-0.3252,-0.3246,-0.3212,-0.3203,-0.3187,-0.3177,-0.316,-0.316,-0.3156,-0.3118,-0.3171,-0.3255,-0.3262,-0.3154,-0.3153,-0.3153,0,-0.3555,-0.3523,-0.3519,-0.3505,-0.3451,-0.3451,-0.3428,-0.3393,-0.338,-0.3357,-0.3348,-0.3324,-0.3311,-0.3294,-0.3251,-0.323,-0.3247,-0.3209,-0.3229,-0.323,-0.3234,-0.3234,-0.3317,-0.3229,-0.3229,-0.3229,-0.3229,0,-0.3613,-0.3616,-0.3551,-0.3549,-0.3551,-0.3501,-0.3504,-0.3477,-0.3447,-0.3439,-0.3392,-0.3385,-0.333,-0.3318,-0.3285,-0.3282,-0.3277,-0.3259,-0.325,-0.3263,-0.3265,-0.3255,-0.325,-0.3231,-0.323,-0.323,-0.323,0,-0.3694,-0.3651,-0.3643,-0.3593,-0.3581,-0.3584,-0.3542,-0.3538,-0.3507,-0.3497,-0.3492,-0.3443,-0.3426,-0.3382,-0.3354,-0.3332,-0.3338,-0.3322,-0.3349,-0.3343,-0.3365,-0.3364,-0.3444,-0.3452,-0.3361,-0.3361,-0.3362,0,-0.3733,-0.3734,-0.3684,-0.3675,-0.3655,-0.3641,-0.3628,-0.3579,-0.3567,-0.353,-0.3531,-0.3511,-0.3491,-0.3467,-0.3429,-0.3407,-0.339,-0.342,-0.3386,-0.3399,-0.3389,-0.3389,-0.3389,-0.3427,-0.3428,-0.3429,-0.343,0,-0.3807,-0.3786,-0.3768,-0.3743,-0.3728,-0.3707,-0.3682,-0.3678,-0.3624,-0.3613,-0.3595,-0.358,-0.3552,-0.3532,-0.3504,-0.3482,-0.3447,-0.3441,-0.3444,-0.3456,-0.3472,-0.3463,-0.3368,-0.3439,-0.3438,-0.3437,-0.3437,-0.3436,-0.3867,-0.3866,-0.383,-0.3812,-0.3789,-0.3768,-0.3762,-0.373,-0.3714,-0.3686,-0.366,-0.3645,-0.3612,-0.3572,-0.3552,-0.354,-0.3522,-0.3527,-0.3528,-0.3529,-0.3535,-0.3475,-0.3535,-0.3535,-0.3534,-0.3534,-0.3534,0,-0.3938,-0.3913,-0.3897,-0.3865,-0.3851,-0.382,-0.3792,-0.3782,-0.3769,-0.3742,-0.3724,-0.3704,-0.3685,-0.3646,-0.3623,-0.3621,-0.3605,-0.3617,-0.3616,-0.3611,-0.3553,-0.3552,-0.3631,-0.3631,-0.3631,-0.3631,-0.3631,-0.3631,-0.3973,-0.3968,-0.3944,-0.3928,-0.3903,-0.3887,-0.3874,-0.3854,-0.3832,-0.3812,-0.3796,-0.377,-0.3739,-0.3714,-0.3695,-0.3684,-0.3678,-0.3695,-0.3679,-0.3625,-0.3615,-0.3607,-0.3605,-0.3694,-0.3694,-0.3738,-0.3738,-0.3739]},{"header":{"parameterUnit":"m.s-1","parameterCategory":1,"la1":30.2991,"la2":30.254,"lo1":-89.0895,"lo2":-89.0444,"dy":0.0017,"dx":0.0017,"nx":28,"ny":28,"refTime":"2025-07-24T09:00:00:Z","depth":0,"parameterNumber":3,"parameterNumberName":"V-component_of_WINDS"},"data":[0,0,0,0,0,0,0,0,0,0,0,0,0,0,0,0,0,0,0,0,0,0,0,0,0,0,0,0,0,0,0,0,0,0,0,0,0,0,0,0,0,0,0,0,0,0,0,0,0,0,0,0,0,0,0,0,0,0,2.1288,2.1288,0,2.1335,2.1335,2.1336,2.1361,2.1361,2.1361,2.1361,2.1407,2.1408,2.1409,0,0,0,0,0,0,0,0,0,0,0,0,0,2.1218,2.1219,2.1288,2.1288,2.1289,2.1335,2.1335,2.1336,2.1361,2.1361,2.1361,2.1361,2.1406,2.1408,2.1409,0,0,0,0,0,0,0,0,0,0,0,0,0,2.1255,2.122,2.1288,2.1307,2.1309,2.1334,2.1335,2.1336,2.1361,2.1361,2.1361,2.1361,2.1406,2.1407,2.1409,2.1418,0,0,2.1415,2.1415,0,0,0,0,0,0,0,0,2.1253,2.1257,2.1303,2.1306,2.1308,2.1342,2.1327,2.1363,2.1361,2.1341,2.1361,2.1361,2.1385,2.1388,2.1397,2.142,2.1422,2.1415,2.1416,2.1416,2.1417,0,0,0,0,0,0,0,2.125,2.1256,2.1306,2.1304,2.1307,2.1313,2.1318,2.1334,2.1362,2.1343,2.1345,2.135,2.1386,2.1395,2.1398,2.1423,2.1415,2.1416,2.1417,2.1418,2.1457,2.1457,0,0,0,0,0,0,2.1245,2.1253,2.1305,2.1308,2.128,2.1314,2.132,2.1331,2.1362,2.1367,2.135,2.1351,2.1392,2.1396,2.14,2.1413,2.1416,2.1418,2.1419,2.1457,2.1457,2.1457,0,0,0,0,0,0,2.1243,2.1249,2.1303,2.1281,2.1288,2.1315,2.1327,2.1332,2.1341,2.1367,2.1372,2.1354,2.1392,2.1397,2.1414,2.1415,2.1419,2.142,2.1457,2.1457,2.1457,2.144,0,0,0,0,0,0,2.1241,2.1248,2.1252,2.1281,2.1289,2.1316,2.1327,2.1333,2.1344,2.1346,2.1373,2.1377,2.1393,2.1411,2.1416,2.1418,2.1422,2.1457,2.1457,2.1457,2.144,2.1439,2.1438,0,0,0,0,0,2.1239,2.1245,2.1252,2.1259,2.1295,2.1316,2.1321,2.134,2.1344,2.1348,2.1365,2.1376,2.1414,2.1413,2.1418,2.142,2.1457,2.1457,2.1457,2.1441,2.1439,2.1438,0,0,0,0,0,0,2.1215,2.1249,2.1258,2.1274,2.1292,2.1321,2.1326,2.1338,2.1355,2.1356,2.1378,2.1384,2.1398,2.1411,2.1408,2.1431,2.1437,2.1438,2.1423,2.1421,2.142,2.1417,2.1423,0,0,0,0,0,2.1211,2.1227,2.1255,2.1266,2.1275,2.1299,2.1309,2.1322,2.1342,2.135,2.1368,2.1386,2.1402,2.1412,2.1429,2.1442,2.1448,2.1446,2.1445,2.1444,2.1445,2.1454,2.1454,2.1457,2.1457,2.1457,0,0,2.1204,2.1225,2.1233,2.1262,2.1278,2.1293,2.1306,2.1321,2.1332,2.1352,2.1369,2.1383,2.1405,2.142,2.1427,2.1431,2.1446,2.1444,2.1443,2.1445,2.1454,2.1454,2.1453,2.1457,2.1457,2.1457,0,0,2.12,2.1216,2.1228,2.1244,2.1269,2.1285,2.1287,2.1315,2.1325,2.1343,2.1359,2.1372,2.1399,2.1414,2.1426,2.1428,2.1438,2.1432,2.1427,2.1435,2.1435,2.1435,2.1436,2.1436,2.1433,2.1433,2.1433,0,2.1188,2.1212,2.1233,2.1248,2.126,2.128,2.1292,2.1306,2.1334,2.1342,2.1346,2.1381,2.1397,2.1417,2.1417,2.1425,2.1429,2.1429,2.1433,2.1433,2.1434,2.1435,2.1436,2.1432,2.1432,2.1432,2.1432,0,2.1196,2.1213,2.1219,2.1247,2.126,2.1274,2.1296,2.1307,2.1319,2.1335,2.1353,2.1373,2.1394,2.1399,2.1411,2.1421,2.1422,2.1429,2.1435,2.1432,2.1434,2.1435,2.1431,2.1431,2.1431,2.1431,0,0,2.1178,2.1218,2.122,2.1234,2.1262,2.1275,2.1289,2.1311,2.132,2.1339,2.1351,2.1374,2.1382,2.1394,2.1408,2.1415,2.1416,2.1421,2.1422,2.142,2.143,2.1425,2.1425,2.1424,2.1424,2.1424,2.1428,0,2.1178,2.1205,2.1225,2.1245,2.126,2.128,2.1292,2.1311,2.1326,2.1341,2.1357,2.1374,2.1381,2.1389,2.1397,2.1414,2.1419,2.1414,2.1435,2.1436,2.143,2.1426,2.1421,2.1424,2.1429,2.1429,2.1429,0,2.1182,2.1201,2.1223,2.1251,2.1258,2.1269,2.1291,2.1305,2.1327,2.1337,2.1352,2.1366,2.1382,2.1386,2.1408,2.1405,2.1415,2.1424,2.1425,2.1428,2.1433,2.1429,2.1425,2.1425,2.143,2.143,2.143,0,2.1167,2.1198,2.1216,2.1227,2.1259,2.1267,2.1281,2.1303,2.1315,2.1334,2.1342,2.1362,2.1373,2.1388,2.1407,2.1408,2.1427,2.1433,2.1436,2.1436,2.144,2.1439,2.1437,2.1445,2.1445,2.1445,2.1445,0,2.1166,2.1178,2.121,2.1221,2.1235,2.1258,2.1272,2.1287,2.1306,2.132,2.1337,2.135,2.1374,2.1389,2.1404,2.142,2.1425,2.1434,2.1438,2.1433,2.1431,2.1439,2.144,2.1445,2.1445,2.1445,2.1445,0,2.1152,2.1174,2.1194,2.1224,2.1232,2.1241,2.1267,2.1278,2.1294,2.1311,2.1317,2.1342,2.1361,2.1381,2.1406,2.1416,2.1432,2.1437,2.1425,2.1428,2.143,2.143,2.1433,2.1435,2.1441,2.1441,2.1441,0,2.115,2.116,2.1192,2.1203,2.1217,2.1234,2.1247,2.1269,2.1282,2.1308,2.1316,2.1336,2.1354,2.1383,2.1403,2.1423,2.1429,2.1429,2.1432,2.1427,2.143,2.1429,2.1431,2.1428,2.1428,2.1428,2.1428,0,2.1144,2.1155,2.1173,2.1196,2.1211,2.1229,2.1248,2.1256,2.1282,2.1295,2.1315,2.1329,2.1356,2.1376,2.1399,2.1412,2.1424,2.1427,2.1428,2.1424,2.1417,2.1421,2.1423,2.1426,2.1426,2.1427,2.1427,2.1427,2.1137,2.1148,2.1172,2.1192,2.1209,2.1226,2.1239,2.1257,2.1274,2.1299,2.131,2.1331,2.1353,2.1384,2.1398,2.1413,2.1417,2.142,2.142,2.1421,2.142,2.1414,2.1417,2.1417,2.1418,2.1418,2.1418,0,2.1133,2.115,2.1168,2.1195,2.1211,2.1222,2.1243,2.1256,2.1274,2.1293,2.1311,2.1334,2.1354,2.1376,2.1397,2.1406,2.1412,2.1411,2.1411,2.1414,2.1415,2.1412,2.1406,2.1406,2.1406,2.1406,2.1406,2.1406,2.1133,2.1152,2.1165,2.1193,2.1209,2.123,2.1242,2.1258,2.1274,2.13,2.1317,2.1331,2.1352,2.1375,2.1394,2.14,2.1407,2.1404,2.1412,2.1413,2.1414,2.1414,2.1411,2.1405,2.1405,2.1409,2.1409,2.1409]}]]